Regional Weather Roundup
Issued by NWS

Home | Current Version | Previous Version | Text Only | Print | Product List | Glossary Off
Versions: 1 2 3 4 5 6 7 8 9 10 11 12 13 14 15 16 17 18 19 20 21 22 23 24 25 26 27 28 29 30 31 32 33 34 35 36 37 38 39 40 41 42 43 44 45 46 47 48 49 50

838
ASUS43 KOAX 190002
RWRNE

WEATHER ROUNDUP FOR NEBRASKA
NATIONAL WEATHER SERVICE OMAHA NE
700 PM CDT WED OCT 18 2017

NOTES: SATELLITE DATA IS BEING USED TO AUGMENT CLOUD COVER ABOVE
       12000 FEET.
       "FAIR" INDICATES FEW OR NO CLOUDS BELOW 12,000 FEET WITH NO
       SIGNIFICANT WEATHER AND/OR OBSTRUCTIONS TO VISIBILITY.


NEZ001>004-019>022-054>056-190100-
NEBRASKA PANHANDLE

CITY           SKY/WX    TMP DP  RH WIND       PRES   REMARKS
SCOTTSBLUFF    CLEAR     62  28  27 SE8       30.07S
6HR MIN TEMP:  62; 6HR MAX TEMP:  73;

ALLIANCE       CLEAR     55  31  39 SE12      30.08S
6HR MIN TEMP:  55; 6HR MAX TEMP:  70;

CHADRON        CLEAR     61  29  29 SE10      30.03F
6HR MIN TEMP:  61; 6HR MAX TEMP:  71;

GORDON         FAIR      59  32  36 SE3       30.07F
6HR MIN TEMP:  59; 6HR MAX TEMP:  67;

KIMBALL        CLEAR     60  25  25 SE7       30.12S
SIDNEY         CLEAR     61  27  27 SE9       30.11R
6HR MIN TEMP:  61; 6HR MAX TEMP:  74;

$$

NEZ057>060-069>072-079>082-190100-
SOUTHWEST NEBRASKA

CITY           SKY/WX    TMP DP  RH WIND       PRES   REMARKS
NORTH PLATTE   CLEAR     61  36  39 NE6       30.09R
6HR MIN TEMP:  61; 6HR MAX TEMP:  76;

IMPERIAL       CLEAR     62  30  29 E7        30.10R
6HR MIN TEMP:  62; 6HR MAX TEMP:  79;

LEXINGTON      CLEAR     63  36  35 N6        30.07R
MCCOOK         CLEAR     64  35  34 NE8       30.07R
6HR MIN TEMP:  64; 6HR MAX TEMP:  80; 6HR PCP: TRACE;

OGALLALA       CLEAR     64  32  30 E5        30.10S
$$

NEZ005>010-023>029-035>040-094-190100-
NORTH CENTRAL NEBRASKA

CITY           SKY/WX    TMP DP  RH WIND       PRES   REMARKS
VALENTINE      CLEAR     59  31  34 E6        30.07F
6HR MIN TEMP:  59; 6HR MAX TEMP:  70;

AINSWORTH      CLEAR     58  36  44 CALM      30.08S
BROKEN BOW     CLEAR     61  37  41 NE6       30.07R
6HR MIN TEMP:  61; 6HR MAX TEMP:  73;

O`NEILL        CLEAR     60  38  44 NE6       30.07R
ORD            CLEAR     60  33  36 N6        30.05R
6HR MIN TEMP:  60; 6HR MAX TEMP:  73; 6HR PCP: TRACE;

$$

NEZ041-046>049-061>064-073>077-083>087-190100-
SOUTH CENTRAL NEBRASKA

CITY           SKY/WX    TMP DP  RH WIND       PRES   REMARKS
GRAND ISLAND   CLEAR     62  39  42 N7        30.04R
6HR MIN TEMP:  62; 6HR MAX TEMP:  77; 6HR PCP: TRACE;

AURORA         CLEAR     60  38  43 N8        30.03R
HASTINGS       CLEAR     63  38  39 N8        30.04R
6HR MIN TEMP:  63; 6HR MAX TEMP:  76;

HEBRON         CLEAR     66  49  54 CALM      29.99R
HOLDREGE       CLEAR     63  37  38 N7        30.05R
KEARNEY        CLEAR     60  37  42 N9        30.06R
YORK           CLEAR     61  41  48 N8        30.02R
$$

NEZ011>018-030>034-042>045-190100-
NORTHEAST NEBRASKA

CITY           SKY/WX    TMP DP  RH WIND       PRES   REMARKS
NORFOLK        CLEAR     62  38  40 NW7       30.03R
6HR MIN TEMP:  62; 6HR MAX TEMP:  74;

ALBION         CLEAR     62  39  43 N6        30.05R
BLAIR          CLEAR     66  46  49 N8        29.99R
COLUMBUS       CLEAR     61  39  44 N7        30.02R
FREMONT        CLEAR     67  43  42 N5        30.01R
TEKAMAH        CLEAR     62  43  49 N7        29.99R
6HR MIN TEMP:  62; 6HR MAX TEMP:  78;

WAYNE          CLEAR     57  41  54 CALM      30.02R
$$

NEZ050>053-065>068-078-088>093-190100-
SOUTHEAST NEBRASKA

CITY           SKY/WX    TMP DP  RH WIND       PRES   REMARKS
LINCOLN        CLEAR     62  47  57 N7        29.99R
6HR MIN TEMP:  62; 6HR MAX TEMP:  80;

OMAHA EPPLEY   PTCLDY    69  46  43 N13       29.98R
6HR MIN TEMP:  67; 6HR MAX TEMP:  78;

BEATRICE       CLEAR     67  51  57 S6        29.99R
FALLS CITY     CLEAR     68  49  50 CALM      29.98R
6HR MIN TEMP:  67; 6HR MAX TEMP:  74;

NEBRASKA CITY  CLEAR     67  50  53 S5        29.99R
PLATTSMOUTH    CLEAR     67  51  56 SE5       29.98R
$$

NEZ044-045-051>053-067-190100-
OMAHA AREA

CITY           SKY/WX    TMP DP  RH WIND       PRES   REMARKS
OMAHA EPPLEY   PTCLDY    69  46  43 N13       29.98R
6HR MIN TEMP:  67; 6HR MAX TEMP:  78;

BLAIR          CLEAR     66  46  49 N8        29.99R
FREMONT        CLEAR     67  43  42 N5        30.01R
MILLARD        CLEAR     68  56  65 N3        29.98R
OFFUTT AFB     CLEAR     59  53  80 NE3       29.97R
PLATTSMOUTH    CLEAR     67  51  56 SE5       29.98R
WAHOO          FAIR      67  41  39 N7        29.99R
$$




USA.gov is the U.S. government's official web portal to all federal, state and local government web resources and services.